User: anonymous   Login
Location: Unspecified
(0.0000°N, 0.0000°E)
Time: 02:56:52
(UTC+00:00)
Language:

COSMOS 2501 (GLONASS) - Orbit

View from above orbital plane
View from above orbital plane
View from above satellite
View from above satellite

Ground track
Ground track

The orbit data is extracted from the following two-line orbital elements,

1 40315U 14075A   17232.39218288 -.00000009 +00000-0 +00000-0 0  9996
2 40315 064.3762 303.0920 0016511 207.6316 127.8783 02.13098768021170
Epoch (UTC): 20 August 2017 09:24:44
Eccentricity: 0.0016511
inclination: 64.3762°
perigee height: 19088 km
apogee height: 19172 km
right ascension of ascending node: 303.0920°
argument of perigee: 207.6316°
revolutions per day: 2.13098768
mean anomaly at epoch: 127.8783°
orbit number at epoch: 2117

The dashed part of the orbit path shows where the satellite is in the earth's shadow,  

DLR